When you browse on this site, cookies collect data to enhance your experience and personalize the content and advertising you see.
Visit our Privacy Policy to learn more. By continuing to use the site, you agree to this use of cookies and data.
  • In Schweiz
  • Länderverzeichnis
  • Für 7 Tage
  • Wassertemperatur
  • Satellitenkarten
  • Wetterkarte
  • Widgets
  • user-avatar
    Anmelden

    Stündliche Wetter Guangzhou

    Heute, 16 Juni, Sonntag

    Zeit Temperatur Niederschläge Wind Luftdruck Luftfeuchtigkeit
    00:00 +32°C° 0 mm 4 m/S 754 mmHg 64%
    01:00 +31°C° 0 mm 3 m/S 753 mmHg 65%
    02:00 +31°C° 0 mm 2 m/S 753 mmHg 65%
    03:00 +30°C° 0 mm 2 m/S 753 mmHg 67%
    04:00 +30°C° 0 mm 2 m/S 753 mmHg 68%
    05:00 +30°C° 0 mm 3 m/S 753 mmHg 70%
    06:00 +30°C° 0 mm 3 m/S 753 mmHg 70%
    07:00 +30°C° 0 mm 3 m/S 754 mmHg 70%
    08:00 +30°C° 0 mm 3 m/S 754 mmHg 69%
    09:00 +31°C° 0 mm 3 m/S 754 mmHg 66%
    10:00 +31°C° 0 mm 3 m/S 754 mmHg 63%
    11:00 +33°C° 0 mm 3 m/S 754 mmHg 60%
    12:00 +34°C° 0 mm 3 m/S 754 mmHg 55%
    13:00 +36°C° 0 mm 3 m/S 753 mmHg 49%
    14:00 +36°C° 0 mm 2 m/S 753 mmHg 48%
    15:00 +36°C° 0 mm 3 m/S 753 mmHg 48%
    16:00 +36°C° 0 mm 4 m/S 753 mmHg 48%
    17:00 +37°C° 0 mm 4 m/S 752 mmHg 47%
    18:00 +36°C° 0 mm 4 m/S 753 mmHg 50%
    19:00 +35°C° 0 mm 4 m/S 753 mmHg 52%
    20:00 +34°C° 0 mm 5 m/S 753 mmHg 55%
    21:00 +33°C° 0 mm 4 m/S 754 mmHg 57%
    22:00 +32°C° 0 mm 4 m/S 754 mmHg 60%
    23:00 +32°C° 0 mm 4 m/S 755 mmHg 63%

    Morgen, 17 Juni, Montag

    Zeit Temperatur Niederschläge Wind Luftdruck Luftfeuchtigkeit
    00:00 +32°C° 0 mm 4 m/S 755 mmHg 65%
    01:00 +30°C° 0 mm 3 m/S 755 mmHg 67%
    02:00 +30°C° 0 mm 3 m/S 754 mmHg 69%
    03:00 +30°C° 0 mm 3 m/S 754 mmHg 70%
    04:00 +29°C° 0 mm 3 m/S 754 mmHg 70%
    05:00 +29°C° 0 mm 3 m/S 754 mmHg 71%
    06:00 +30°C° 0 mm 3 m/S 754 mmHg 69%
    07:00 +30°C° 0 mm 3 m/S 755 mmHg 68%
    08:00 +31°C° 0 mm 3 m/S 755 mmHg 66%
    09:00 +31°C° 0 mm 3 m/S 755 mmHg 63%
    10:00 +33°C° 0 mm 3 m/S 755 mmHg 61%
    11:00 +34°C° 0 mm 3 m/S 755 mmHg 58%
    12:00 +35°C° 0 mm 3 m/S 755 mmHg 56%
    13:00 +36°C° 0 mm 4 m/S 754 mmHg 54%
    14:00 +36°C° 0 mm 4 m/S 754 mmHg 52%
    15:00 +36°C° 0 mm 4 m/S 753 mmHg 52%
    16:00 +36°C° 0 mm 4 m/S 753 mmHg 52%
    17:00 +37°C° 0 mm 5 m/S 753 mmHg 52%
    18:00 +36°C° 0.4 mm 5 m/S 753 mmHg 56%
    19:00 +34°C° 0.4 mm 5 m/S 754 mmHg 61%
    20:00 +33°C° 0.4 mm 5 m/S 754 mmHg 65%
    21:00 +33°C° 0.1 mm 5 m/S 755 mmHg 67%
    22:00 +33°C° 0.1 mm 5 m/S 755 mmHg 69%
    23:00 +32°C° 0.1 mm 5 m/S 756 mmHg 71%

    übermorgen, 18 Juni, Dienstag

    Zeit Temperatur Niederschläge Wind Luftdruck Luftfeuchtigkeit
    00:00 +32°C° 0.4 mm 4 m/S 755 mmHg 72%
    01:00 +32°C° 0.4 mm 4 m/S 755 mmHg 74%
    02:00 +32°C° 0.4 mm 4 m/S 755 mmHg 75%
    03:00 +30°C° 0.8 mm 3 m/S 755 mmHg 76%
    04:00 +30°C° 0.8 mm 3 m/S 755 mmHg 77%
    05:00 +30°C° 0.8 mm 3 m/S 755 mmHg 77%
    06:00 +30°C° 0.6 mm 3 m/S 755 mmHg 75%
    07:00 +31°C° 0.6 mm 3 m/S 755 mmHg 72%
    08:00 +32°C° 0.6 mm 4 m/S 755 mmHg 70%
    09:00 +34°C° 0.2 mm 4 m/S 755 mmHg 65%
    10:00 +35°C° 0.2 mm 4 m/S 755 mmHg 59%
    11:00 +36°C° 0.2 mm 4 m/S 755 mmHg 54%
    12:00 +37°C° 0.4 mm 4 m/S 754 mmHg 52%
    13:00 +37°C° 0.4 mm 5 m/S 754 mmHg 50%
    14:00 +39°C° 0.4 mm 5 m/S 753 mmHg 49%
    15:00 +37°C° 0.2 mm 5 m/S 753 mmHg 50%
    16:00 +37°C° 0.2 mm 5 m/S 753 mmHg 52%
    17:00 +37°C° 0.2 mm 5 m/S 753 mmHg 53%
    18:00 +36°C° 0 mm 5 m/S 753 mmHg 56%
    19:00 +35°C° 0 mm 5 m/S 753 mmHg 58%
    20:00 +34°C° 0 mm 4 m/S 754 mmHg 61%
    21:00 +34°C° 0 mm 4 m/S 754 mmHg 63%
    22:00 +34°C° 0 mm 4 m/S 755 mmHg 65%
    23:00 +33°C° 0 mm 4 m/S 755 mmHg 67%

    19 Juni, Mittwoch

    Zeit Temperatur Niederschläge Wind Luftdruck Luftfeuchtigkeit
    00:00 +33°C° 0.1 mm 4 m/S 755 mmHg 68%
    01:00 +33°C° 0.1 mm 4 m/S 754 mmHg 69%
    02:00 +33°C° 0.1 mm 3 m/S 754 mmHg 70%
    03:00 +31°C° 0.5 mm 3 m/S 754 mmHg 71%
    04:00 +31°C° 0.5 mm 3 m/S 754 mmHg 71%
    05:00 +31°C° 0.5 mm 3 m/S 754 mmHg 71%
    06:00 +33°C° 0.4 mm 3 m/S 754 mmHg 68%
    07:00 +33°C° 0.4 mm 3 m/S 755 mmHg 65%
    08:00 +34°C° 0.4 mm 3 m/S 755 mmHg 62%
    09:00 +35°C° 0 mm 3 m/S 755 mmHg 57%
    10:00 +37°C° 0 mm 3 m/S 755 mmHg 52%
    11:00 +38°C° 0 mm 4 m/S 755 mmHg 47%
    12:00 +38°C° 0 mm 4 m/S 754 mmHg 47%
    13:00 +38°C° 0 mm 4 m/S 754 mmHg 47%
    14:00 +40°C° 0 mm 4 m/S 753 mmHg 47%
    15:00 +38°C° 0.1 mm 4 m/S 752 mmHg 48%
    16:00 +39°C° 0.1 mm 5 m/S 752 mmHg 49%
    17:00 +39°C° 0.1 mm 5 m/S 752 mmHg 51%
    18:00 +37°C° 0 mm 5 m/S 752 mmHg 53%
    19:00 +36°C° 0 mm 5 m/S 752 mmHg 56%
    20:00 +35°C° 0 mm 5 m/S 753 mmHg 59%
    21:00 +35°C° 0 mm 4 m/S 753 mmHg 62%
    22:00 +34°C° 0 mm 4 m/S 754 mmHg 64%
    23:00 +34°C° 0 mm 4 m/S 754 mmHg 67%

    20 Juni, Donnerstag

    Zeit Temperatur Niederschläge Wind Luftdruck Luftfeuchtigkeit
    00:00 +33°C° 0 mm 4 m/S 754 mmHg 68%
    01:00 +33°C° 0 mm 3 m/S 753 mmHg 69%
    02:00 +33°C° 0 mm 3 m/S 753 mmHg 71%
    03:00 +33°C° 0.1 mm 3 m/S 753 mmHg 71%
    04:00 +33°C° 0.1 mm 3 m/S 753 mmHg 72%
    05:00 +31°C° 0.1 mm 3 m/S 753 mmHg 73%
    06:00 +33°C° 0.1 mm 3 m/S 753 mmHg 70%
    07:00 +34°C° 0.1 mm 3 m/S 753 mmHg 68%
    08:00 +34°C° 0.1 mm 3 m/S 754 mmHg 65%
    09:00 +36°C° 0 mm 4 m/S 754 mmHg 60%
    10:00 +37°C° 0 mm 4 m/S 754 mmHg 55%
    11:00 +38°C° 0 mm 4 m/S 754 mmHg 50%
    12:00 +40°C° 0 mm 5 m/S 753 mmHg 49%
    13:00 +40°C° 0 mm 5 m/S 752 mmHg 47%
    14:00 +41°C° 0 mm 5 m/S 752 mmHg 46%
    15:00 +40°C° 0 mm 5 m/S 751 mmHg 46%
    16:00 +40°C° 0 mm 5 m/S 751 mmHg 47%
    17:00 +40°C° 0 mm 6 m/S 751 mmHg 47%
    18:00 +39°C° 0 mm 5 m/S 751 mmHg 51%
    19:00 +37°C° 0 mm 5 m/S 751 mmHg 55%
    20:00 +36°C° 0 mm 5 m/S 752 mmHg 58%
    21:00 +35°C° 0 mm 5 m/S 752 mmHg 61%
    22:00 +35°C° 0 mm 5 m/S 752 mmHg 64%
    23:00 +34°C° 0 mm 5 m/S 753 mmHg 66%

    21 Juni, Freitag

    Zeit Temperatur Niederschläge Wind Luftdruck Luftfeuchtigkeit
    00:00 +34°C° 0 mm 5 m/S 752 mmHg 68%
    01:00 +33°C° 0 mm 5 m/S 752 mmHg 69%
    02:00 +33°C° 0 mm 5 m/S 752 mmHg 70%
    03:00 +33°C° 0 mm 4 m/S 752 mmHg 71%
    04:00 +33°C° 0 mm 4 m/S 752 mmHg 72%
    05:00 +33°C° 0 mm 4 m/S 752 mmHg 73%
    06:00 +33°C° 0.1 mm 4 m/S 752 mmHg 71%
    07:00 +33°C° 0.1 mm 4 m/S 752 mmHg 69%
    08:00 +34°C° 0.1 mm 4 m/S 753 mmHg 68%
    09:00 +35°C° 0.2 mm 5 m/S 753 mmHg 63%
    10:00 +36°C° 0.2 mm 5 m/S 753 mmHg 58%
    11:00 +37°C° 0.2 mm 5 m/S 753 mmHg 53%
    12:00 +39°C° 0 mm 5 m/S 752 mmHg 51%
    13:00 +40°C° 0 mm 5 m/S 752 mmHg 49%
    14:00 +40°C° 0 mm 5 m/S 751 mmHg 47%
    15:00 +40°C° 0 mm 5 m/S 751 mmHg 49%
    16:00 +40°C° 0 mm 5 m/S 750 mmHg 50%
    17:00 +39°C° 0 mm 5 m/S 750 mmHg 52%
    18:00 +37°C° 0.1 mm 5 m/S 750 mmHg 56%
    19:00 +36°C° 0.1 mm 5 m/S 751 mmHg 59%
    20:00 +35°C° 0.1 mm 5 m/S 751 mmHg 63%
    21:00 +35°C° 0 mm 5 m/S 751 mmHg 64%
    22:00 +34°C° 0 mm 4 m/S 752 mmHg 65%
    23:00 +34°C° 0 mm 4 m/S 752 mmHg 67%
    Mehr zeigen